Location: Middelsbur
(53.6609°N, 7.5020°E)
Time: 12:15:23
(UTC+00:00)

NOSS 3-4 (C) - Pass Details

Date: 06 July 2020
Orbit: 891 x 1321 km, 63.4° (Epoch: 12 July)

Event Time Altitude Azimuth Distance (km) Brightness Sun altitude
Rises 21:19:13 0° 311° (NW) 3,747 8.2 -8.3°
Reaches altitude 10° 21:21:42 10° 311° (NW) 2,849 7.3 -8.5°
Maximum altitude 21:28:31 90° 48° (NE) 1,129 3.9 -9.0°
Drops below altitude 10° 21:36:05 10° 134° (SE) 3,153 5.6 -9.6°
Enters shadow 21:36:11 10° 134° (SE) 3,186 5.6 -9.6°
